Regional Weather Roundup
Issued by NWS

Home | Current Version | Previous Version | Graphics & Text | Print | Product List | Glossary On
Versions: 1 2 3 4 5 6 7 8 9 10 11 12 13 14 15 16 17 18 19 20 21 22 23 24 25 26 27 28 29 30 31 32 33 34 35 36 37 38 39 40 41 42 43 44 45 46 47 48 49 50
000
ASUS43 KDMX 241206
RWRIA

WEATHER ROUNDUP FOR IOWA
NATIONAL WEATHER SERVICE DES MOINES IA
700 AM CDT TUE APR 24 2018

NOTE: "FAIR" INDICATES FEW OR NO CLOUDS BELOW 12,000 FEET WITH NO
SIGNIFICANT WEATHER AND/OR OBSTRUCTIONS TO VISIBILITY.

* - THESE STATIONS ARE NOT NWS STATIONS...THUS NOT UNDER NWS
QUALITY CONTROL.  THEY ALSO DO NOT REPORT WEATHER SUCH
AS PRECIPITATION OR FOG.

IAZ001>003-012>014-020>022-031>034-043>046-241300-
   NORTHWEST IOWA

CITY           SKY/WX    TMP DP  RH WIND       PRES   REMARKS
CARROLL *      CLEAR     37  36  93 W6        30.13R WCI  33
CHEROKEE *     CLEAR     37  37  99 CALM      30.14R FOG
DENISON *      CLEAR     39  39 100 N3        30.14S
LE MARS *      CLOUDY    39  37  93 CALM      30.13S
ORANGE CITY *  MOCLDY    48  41  76 CALM      30.13S
SHELDON *      CLOUDY    39  39 100 CALM      30.12R
SIOUX CITY     MOCLDY    40  37  89 W3        30.13R
6HR MIN TEMP:  39; 6HR MAX TEMP:  50;

SPENCER        CLEAR     38  34  85 NW5       30.13S WCI  34
6HR MIN TEMP:  35; 6HR MAX TEMP:  42;

STORM LAKE *   CLEAR     48  39  71 E3        30.12S
$$

IAZ055>058-069>071-079>083-090>094-241300-
   SOUTHWEST IOWA

CITY           SKY/WX    TMP DP  RH WIND       PRES   REMARKS
ATLANTIC *     CLEAR     39  37  93 N3        30.12S
AUDUBON *      CLEAR     36  32  87 CALM      30.13S
CLARINDA *     CLEAR     39  34  81 CALM      30.14R
COUNCIL BLFS * CLEAR     45  41  87 NE5       30.11S
CRESTON *      CLOUDY    45  36  70 NE9       30.12S
HARLAN  *      CLEAR     41  41 100 N5        30.15S
LAMONI         CLEAR     45  31  58 N7        30.10S
6HR MIN TEMP:  43; 6HR MAX TEMP:  54;

RED OAK *      CLEAR     41  37  87 CALM      30.12R
SHENANDOAH *   CLEAR     36  30  80 CALM      30.12S
$$

IAZ047>049-059>061-072>074-084-241300-
   CENTRAL IOWA

CITY           SKY/WX    TMP DP  RH WIND       PRES   REMARKS
AMES           CLOUDY    45  39  79 N6        30.12S
6HR MIN TEMP:  40; 6HR MAX TEMP:  50;

ANKENY *       CLOUDY    43  37  81 NE3       30.12F
BOONE *        CLOUDY    48  41  76 NE6       30.11S
CHARITON *     CLEAR     43  30  61 N6        30.11R
DES MOINES     CLOUDY    48  37  65 NW3       30.11S
6HR MIN TEMP:  47; 6HR MAX TEMP:  55;

GRINNELL*      CLOUDY    42  32  66 N3        30.12R
KNOXVILLE *    CLOUDY    41  32  70 NW6G13    30.10R
MARSHALLTOWN   CLOUDY    42  36  79 CALM      30.11R
6HR MIN TEMP:  38; 6HR MAX TEMP:  46;

NEWTON *       CLOUDY    48  34  57 N8        30.11R
PELLA *        CLOUDY    42  31  65 N3        30.11S
PERRY *        FAIR      43  40  89 N5        30.11F
$$

IAZ004>006-015-016-023>025-035-036-241300-
   NORTH CENTRAL IOWA

CITY           SKY/WX    TMP DP  RH WIND       PRES   REMARKS
ALGONA *       CLEAR     41  36  81 N6        30.13S HAZE
CLARION *      PTCLDY    45  39  81 E8        30.11F
ESTHERVILLE    CLEAR     36  33  89 NW5       30.12S WCI  32
6HR MIN TEMP:  35; 6HR MAX TEMP:  42;

FORT DODGE *   CLEAR     41  37  86 CALM      30.12S
MASON CITY     CLOUDY    42  38  85 N3        30.14R
6HR MIN TEMP:  40; 6HR MAX TEMP:  45;

FOREST CITY *  FAIR      43  41  93 N3        30.13S
WEBSTER CITY * CLOUDY    43  41  93 NE3       30.10S
IOWA FALLS *   FAIR      43  39  85 CALM      30.14R
$$

IAZ007>011-017>019-026>030-037>042-050>054-066-241300-
   NORTHEAST IOWA

CITY           SKY/WX    TMP DP  RH WIND       PRES   REMARKS
CEDAR RAPIDS   FAIR      40  31  70 N6        30.10R
6HR MIN TEMP:  38; 6HR MAX TEMP:  52;

CHARLES CITY * CLOUDY    45  39  81 CALM      30.12S
CLINTON *      FAIR      44  33  65 N7        30.10R
DECORAH *      FAIR      41  34  75 CALM      30.11R
DUBUQUE        FAIR      44  32  62 N5        30.11R
6HR MIN TEMP:  39; 6HR MAX TEMP:  50;

MONTICELLO *   FAIR      36  32  87 CALM      30.11R
OELWEIN *      MOCLDY    41  36  81 NE7       30.11S
WATERLOO       FAIR      37  34  89 CALM      30.12R
6HR MIN TEMP:  36; 6HR MAX TEMP:  44;

$$

IAZ064-065-067-068-078-241300-
   EAST CENTRAL IOWA

CITY           SKY/WX    TMP DP  RH WIND       PRES   REMARKS
DAVENPORT      FAIR      42  32  67 NW5       30.11R
6HR MIN TEMP:  40; 6HR MAX TEMP:  52;

IOWA CITY      FAIR      41  31  67 CALM      30.12R
6HR MIN TEMP:  39; 6HR MAX TEMP:  53;

MT. PLEASANT * CLEAR     43  34  70 N6        30.10R
MUSCATINE *    FAIR      43  34  70 NW5       30.10R
QUAD CITIES    FAIR      45  35  68 CALM      30.08R
6HR MIN TEMP:  44; 6HR MAX TEMP:  55;

$$

IAZ062-063-075>077-085>089-095>099-241300-
   SOUTHEAST IOWA

CITY           SKY/WX    TMP DP  RH WIND       PRES   REMARKS
BURLINGTON     PTCLDY    51  41  68 NE5       30.08R
6HR MIN TEMP:  46; 6HR MAX TEMP:  53;

FAIRFIELD *    CLEAR     41  30  65 N8        30.10R
FORT MADISON * CLEAR     46  43  87 N3        30.09R
KEOKUK *       CLEAR     48  43  81 N5        30.08R
OSKALOOSA *    FAIR      41  29  63 N6        30.10S
CENTERVILLE *    N/A     41  30  65 CALM      30.11S
OTTUMWA        CLEAR     40  29  64 N7        30.10R
6HR MIN TEMP:  36; 6HR MAX TEMP:  51;

WASHINGTON *   CLEAR     43  32  65 N7        30.11R
$$

ABBREVIATIONS USED IN REMARKS
   TC - TEMPERATURES IN CELSIUS
  WCI - WIND CHILL INDEX
   HX - HEAT INDEX
  VSB - VISIBILITY
$$




USA.gov is the U.S. government's official web portal to all federal, state and local government web resources and services.